EW5523 Weather Reports


time (UTC)temp
C
wind
direction
speed
KPH
gust
KPH
rain 1hr
cm
rain 24hr
cm
rain mn
cm
humidity
%
barometer
mb
20260903021517 13 163 0.0 0.0 0.00 0.00 0.00 92 1013.5
20260903020040 13 163 0.0 0.0 0.00 0.00 0.00 92 1013.4
20260903014513 13 163 0.0 0.0 0.00 0.00 0.00 92 1013.4
20260903013012 13 163 0.0 0.0 0.00 0.00 0.00 92 1013.4
20260903011509 13 164 0.0 0.0 0.00 0.00 0.00 91 1013.4
20260903010008 13 162 0.0 0.0 0.00 0.00 0.00 91 1013.5
20260903004504 14 162 0.0 0.0 0.00 0.00 0.00 90 1013.6
20260903003001 14 162 0.0 0.0 0.00 0.00 0.00 90 1013.5
20260903001504 15 162 0.0 0.0 0.00 0.00 0.00 90 1013.6
20260903000109 15 162 0.0 0.0 0.00 0.00 0.00 90 1013.6
20260902234600 15 162 0.0 0.0 0.00 0.00 0.00 89 1013.7
20260902233103 15 162 0.0 0.0 0.00 0.00 0.00 89 1013.8
20260902231559 15 162 0.0 0.0 0.00 0.00 0.00 89 1013.8
20260902230057 15 162 0.0 0.0 0.00 0.00 0.00 89 1013.9
20260902224556 15 162 0.0 0.0 0.00 0.00 0.00 89 1013.8
20260902223056 15 160 0.0 0.0 0.00 0.00 0.00 89 1013.9
20260902221611 15 159 0.0 0.0 0.00 0.00 0.00 89 1014.0
20260902220101 15 159 0.0 0.0 0.00 0.00 0.00 89 1014.0
20260902214553 15 159 0.0 0.0 0.00 0.00 0.00 90 1014.0
20260902213054 15 159 0.0 0.0 0.00 0.00 0.00 90 1014.1
20260902211557 15 159 0.0 0.0 0.00 0.00 0.00 90 1014.2
20260902210049 15 159 0.0 0.0 0.00 0.00 0.00 89 1014.3
20260902204607 15 159 0.0 0.0 0.00 0.00 0.00 88 1014.3
20260902203049 15 159 0.0 0.0 0.00 0.00 0.00 88 1014.4
20260902201546 15 159 0.0 0.0 0.00 0.00 0.00 88 1014.3
20260902200043 15 159 0.0 0.0 0.00 0.00 0.00 87 1014.4
20260902194554 15 159 0.0 0.0 0.00 0.00 0.00 86 1014.5
20260902193044 15 159 0.0 0.0 0.00 0.00 0.00 86 1014.5
20260902191551 15 159 0.0 0.0 0.00 0.00 0.00 87 1014.7
20260902190039 15 159 0.0 0.0 0.00 0.00 0.00 86 1014.7
20260902184537 15 159 0.0 0.0 0.00 0.00 0.00 86 1014.8
20260902183048 15 159 0.0 0.0 0.00 0.00 0.00 85 1014.8
20260902181535 16 159 0.0 0.0 0.00 0.00 0.00 85 1014.9
20260902180035 16 159 0.0 0.0 0.00 0.00 0.00 85 1015.0
20260902174534 16 159 0.0 0.0 0.00 0.00 0.00 84 1015.1
20260902173049 16 159 0.0 0.0 0.00 0.00 0.00 84 1015.1
20260902171530 16 159 0.0 0.0 0.00 0.00 0.00 83 1015.3
20260902170031 16 159 0.0 0.0 0.00 0.00 0.00 83 1015.4
20260902164534 16 159 0.0 0.0 0.00 0.00 0.00 82 1015.5
20260902163029 16 159 0.0 0.0 0.00 0.00 0.00 82 1015.5
20260902161531 16 159 0.0 0.0 0.00 0.00 0.00 82 1015.4
20260902160028 17 159 0.0 0.0 0.00 0.00 0.00 81 1015.4
20260902154545 17 159 0.0 0.0 0.00 0.00 0.00 80 1015.5
20260902153023 18 159 0.0 0.0 0.00 0.00 0.00 77 1015.4
20260902151531 18 159 0.0 0.0 0.00 0.00 0.00 76 1015.5
20260902150009 19 159 0.0 0.0 0.00 0.00 0.00 74 1015.4
20260902144508 19 159 0.0 1.6 0.00 0.00 0.00 73 1015.5
20260902143007 20 164 0.0 0.0 0.00 0.00 0.00 72 1015.6
20260902141506 20 165 0.0 0.0 0.00 0.00 0.00 71 1015.7
20260902140008 20 143 0.0 1.6 0.00 0.00 0.00 70 1015.8
20260902134503 21 179 0.0 1.6 0.00 0.00 0.00 68 1015.8
20260902133006 21 181 0.0 6.4 0.00 0.00 0.00 67 1015.9
20260902131502 21 163 0.0 3.2 0.00 0.00 0.00 66 1016.1
20260902124559 21 164 1.6 11.3 0.00 0.00 0.00 66 1016.3
20260902123057 21 155 0.0 1.6 0.00 0.00 0.00 66 1016.3
20260902121557 21 176 0.0 9.7 0.00 0.00 0.00 65 1016.4
20260902120056 21 202 0.0 1.6 0.00 0.00 0.00 65 1016.6
20260902114611 21 183 0.0 4.8 0.00 0.00 0.00 64 1016.7
20260902113052 21 224 0.0 4.8 0.00 0.00 0.00 67 1016.7
20260902111550 21 199 0.0 6.4 0.00 0.00 0.00 69 1016.8
20260902110059 21 204 0.0 4.8 0.00 0.00 0.00 68 1016.8
20260902104548 21 172 0.0 6.4 0.00 0.00 0.00 65 1016.9
20260902103058 21 246 0.0 8.0 0.00 0.00 0.00 66 1016.9
20260902101549 21 276 0.0 9.7 0.00 0.00 0.00 66 1017.0
20260902100045 20 266 0.0 6.4 0.00 0.00 0.00 68 1017.0
20260902094543 21 191 0.0 1.6 0.00 0.00 0.00 67 1017.1
20260902093042 20 152 0.0 0.0 0.00 0.00 0.00 72 1017.2
20260902091538 20 143 0.0 0.0 0.00 0.00 0.00 70 1017.3
20260902090035 20 236 0.0 4.8 0.00 0.00 0.00 71 1017.4
20260902084533 20 184 0.0 4.8 0.00 0.00 0.00 71 1017.4
20260902083037 20 185 0.0 1.6 0.00 0.00 0.00 72 1017.5
20260902081541 19 211 0.0 8.0 0.00 0.00 0.00 71 1017.6
20260902080042 19 201 0.0 8.0 0.00 0.00 0.00 73 1017.7
20260902074527 18 283 0.0 8.0 0.00 0.00 0.00 75 1017.7
20260902073031 18 273 0.0 4.8 0.00 0.00 0.00 75 1017.8
20260902071530 19 266 0.0 4.8 0.00 0.00 0.00 75 1017.8
20260902070022 18 249 0.0 6.4 0.00 0.00 0.00 78 1017.8
20260902064520 17 188 0.0 4.8 0.00 0.00 0.00 78 1017.8
20260902063018 17 186 0.0 8.0 0.00 0.00 0.00 79 1017.8
20260902061515 17 283 0.0 3.2 0.00 0.00 0.00 80 1017.8
20260902060017 17 243 0.0 4.8 0.00 0.00 0.00 81 1017.8
20260902054521 17 272 0.0 1.6 0.00 0.00 0.00 81 1017.9
20260902053011 16 216 0.0 0.0 0.00 0.00 0.00 83 1017.9
20260902051508 16 232 0.0 0.0 0.00 0.00 0.00 85 1017.9
20260902050007 15 276 0.0 1.6 0.00 0.00 0.00 85 1017.9
20260902044603 15 241 0.0 0.0 0.00 0.00 0.00 87 1017.9
20260902043058 14 281 0.0 0.0 0.00 0.00 0.00 91 1018.1
20260902041608 13 281 0.0 0.0 0.00 0.00 0.00 91 1018.1
20260902040056 13 226 0.0 0.0 0.00 0.00 0.00 93 1018.1
20260902034554 12 224 0.0 0.0 0.00 0.00 0.00 96 1018.1
20260902033054 11 102 0.0 0.0 0.00 0.00 0.00 97 1018.1
20260902031547 11 102 0.0 0.0 0.00 0.00 0.00 97 1018.1
20260902030049 10 102 0.0 0.0 0.00 0.00 0.00 96 1018.0
20260902024546 10 102 0.0 0.0 0.00 0.00 0.00 96 1017.9
20260902023048 11 102 0.0 0.0 0.00 0.00 0.00 97 1017.8